Flag for Brazil Weather past 2 weeks in Curitiba, Paraná, Brazil

Now
68 °F

Partly sunny.


Feels Like: 68 °F
Forecast: 58 / 69 °F
Wind: 10 mph from East

Location: Curitiba Aeroporto


UV Index: 5 (Moderate)

Visibility: N/A


Pressure: 30.12 "Hg

Humidity: 83%

Dew point: 63 °F

Location of CuritibaLocation

Historic Weather in Curitiba

°F

Curitiba temperature yesterday

Maximum temperature yesterday: 59 °F (at 8:00 AM)
Minimum temperature yesterday: 55 °F (at 12:00 AM)
Average temperature yesterday: 58 °F

Past Weeks' High & Low Weather Summary

 TemperatureHumidityPressure
High91 °F (Apr 7, 8:00 AM)100% (Apr 1, 7:00 PM)30.27 "Hg (Apr 1, 7:00 PM)
Low55 °F (Apr 14, 6:00 PM)40% (Apr 7, 3:00 PM)29.95 "Hg (Apr 12, 5:00 AM)
Average66 °F91%30.12 "Hg
* Reported Apr 1 1:00 PM — Apr 16 1:00 PM, Curitiba, Weather by CustomWeather, © 2014

Note: Actual official high and low records may vary slightly from our data, if they occured in-between our weather recording intervals... More about our weather records

Advertising

Historic Weather Conditions — Data for Previous 24 hours

 ConditionsComfort  
Time TempWeatherWind HumidityBarometerVisibility
1:00 PM
Apr 16
66 °FOvercast.12 mph88%30.15 "HgN/A
12:00 PM66 °FOvercast.13 mph88%30.15 "HgN/A
11:00 AM66 °FLow clouds.8 mph88%30.18 "HgN/A
10:00 AM64 °FSleet. Mostly cloudy.8 mph94%30.18 "HgN/A
9:00 AM63 °FMostly cloudy.7 mph100%30.18 "Hg5 mi
8:00 AM61 °FMostly cloudy.6 mph100%30.15 "Hg4 mi
7:00 AM59 °FFog.5 mph100%30.12 "Hg2 mi
6:00 AM59 °FLow clouds.5 mph100%30.12 "Hg4 mi
5:00 AM59 °FFog.5 mph100%30.09 "Hg2 mi
4:00 AM59 °FFog.2 mph100%30.09 "Hg2 mi
3:00 AM59 °FLow clouds.5 mph100%30.12 "Hg4 mi
2:00 AM59 °FFog.3 mph100%30.15 "Hg3 mi
1:00 AM59 °FFog.3 mph100%30.15 "Hg2 mi
12:00 AM59 °FFog.6 mph100%30.18 "Hg2 mi
11:00 PM
Apr 15
59 °FLow clouds.3 mph100%30.18 "Hg4 mi
10:00 PM57 °FMostly cloudy.3 mph100%30.15 "HgN/A
8:00 PM57 °FPassing clouds.6 mph100%30.15 "Hg6 mi
7:00 PM57 °FPassing clouds.7 mph100%30.12 "Hg4 mi
6:00 PM59 °FMostly cloudy.6 mph100%30.12 "Hg4 mi
5:00 PM57 °FLight rain. Fog.10 mph100%30.12 "Hg3 mi
4:00 PM59 °FLight rain. More clouds than sun.5 mph100%30.15 "Hg6 mi
3:00 PM59 °FLight rain. More clouds than sun.12 mph100%30.15 "Hg5 mi
2:00 PM57 °FLight rain. Cloudy.7 mph100%30.15 "Hg5 mi
Weather by CustomWeather, © 2014

See weather overview